Location: Newark
(52.2583°N, 7.1190°W)
Time: 08:22:54
(UTC+00:00)

S-56A Canister/Altair - Pass Details

Date: 25 November 2019
Orbit: 633 x 2500 km, 38.9° (Epoch: 09 December)

Event Time Altitude Azimuth Distance (km) Brightness Sun altitude
Rises 18:11:55 0° 256° (WSW) 5,387 13.7 -15.8°
Reaches altitude 10° 18:16:18 10° 249° (WSW) 4,081 12.5 -16.4°
Maximum altitude 18:24:54 32° 192° (SSW) 2,131 10.0 -17.7°
Enters shadow 18:30:55 11° 132° (SE) 2,830 10.1 -18.6°
